Regional Weather Roundup
Issued by NWS Sioux Falls, SD

Home | Current Version | Previous Version | Text Only | Print | Product List | Glossary Off
Versions: 1 2 3 4 5 6 7 8 9 10 11 12 13 14 15 16 17 18 19 20 21 22 23 24 25 26 27 28 29 30 31 32 33 34 35 36 37 38 39 40 41 42 43 44 45 46 47 48 49 50

000
ASUS43 KFSD 282310
RWRFSD

WEATHER ROUNDUP FOR SE SOUTH DAKOTA/SW MINNESOTA/NW IOWA
NATIONAL WEATHER SERVICE SIOUX FALLS SD
600 PM CDT MON JUL 28 2014

NOTE: "FAIR" INDICATES FEW OR NO CLOUDS BELOW 12,000 FEET WITH NO
SIGNIFICANT WEATHER AND OR OBSTRUCTIONS TO VISIBILITY.


SDZ038>040-050-052>070-290000-
SOUTHEAST SOUTH DAKOTA

CITY           SKY/WX    TMP DP  RH WIND       PRES   REMARKS
CHAMBERLAIN    MOSUNNY   76  52  42 E5        30.24F
HURON          PTSUNNY   72  51  47 N5        30.23F
MADISON        FAIR      72  54  53 NE12G17   30.24F
MITCHELL       MOSUNNY   76  53  44 N12       30.23F
SIOUX FALLS    MOSUNNY   71  54  54 N8        30.22F
WINNER         FAIR      83  48  29 N9        30.23F
YANKTON          N/A     73  54  49 N9        30.22F
$$

MNZ071-072-080-081-089-090-097-098-290000-
SOUTHWEST MINNESOTA

CITY           SKY/WX    TMP DP  RH WIND       PRES   REMARKS
FAIRMONT       SUNNY     73  52  46 NW10      30.19F
JACKSON        MOSUNNY   70  52  52 NW10G17   30.22F
LUVERNE        MOSUNNY   73  52  46 N10       30.22F
MARSHALL       CLOUDY    72  54  53 N12       30.21F
MONTEVIDEO     PTSUNNY   75  54  46 N10       30.22F
PIPESTONE      MOSUNNY   72  54  53 N6        30.23F
REDWOOD FALLS  PTSUNNY   74  53  48 N9        30.19F
TRACY          PTSUNNY   71  55  57 N9        30.22F
WINDOM         SUNNY     72  54  53 NW10      30.21F
WORTHINGTON    SUNNY     72  54  53 N9        30.23F
$$

IAZ001>003-012>014-020>022-031-032-NEZ013-014-SDZ071-290000-
NORTHWEST IOWA

CITY           SKY/WX    TMP DP  RH WIND       PRES   REMARKS
CHEROKEE       PTSUNNY   72  58  61 N9        30.20S
DENISON        PTSUNNY   75  59  57 N10       30.17F
ESTHERVILLE    SUNNY     71  55  56 N13       30.20F
LE MARS        SUNNY     73  57  56 N5        30.21S
ORANGE CITY    SUNNY     75  54  46 NE6       30.21F
SHELDON        PTSUNNY   72  57  60 N8        30.20F
SIOUX CITY     SUNNY     75  56  51 NW8       30.20F
SPENCER        MOSUNNY   74  56  53 N12       30.20F
STORM LAKE     MOSUNNY   70  63  78 N8        30.21F
$$

ABBREVIATIONS USED IN REMARKS
   TC - TEMPERATURE IN CELSIUS
  WCI - WIND CHILL INDEX
   HX - HEAT INDEX
  VSB - VISIBILITY



USA.gov is the U.S. government's official web portal to all federal, state and local government web resources and services.